User: anonymous   Login
Location: Unspecified
(0.0000°N, 0.0000°E)
Time: 23:43:07
(UTC+00:00)
Language:

OV3-3 - Orbit

View from above orbital plane
View from above orbital plane
View from above satellite
View from above satellite

Ground track
Ground track

The orbit data is extracted from the following two-line orbital elements,

1  2389U 66070A   19047.90020200 +.00001388 +00000-0 +78140-4 0  9999
2  2389 081.3881 035.8985 1238488 256.3647 089.6863 12.92752860248521
Epoch (UTC): 16 February 2019 21:36:17
Eccentricity: 0.1238488
inclination: 81.3881°
perigee height: 341 km
apogee height: 2240 km
right ascension of ascending node: 35.8985°
argument of perigee: 256.3647°
revolutions per day: 12.92752860
mean anomaly at epoch: 89.6863°
orbit number at epoch: 24852

The dashed part of the orbit path shows where the satellite is in the earth's shadow,  

DLR